N390TC KCLE-KCLE

Flight info

Callsign N390TC
Flight time 0h 15m
Altitude VFR/020
Route
Aircraft P28A/L-DOV/C

Departure

Time 2026-05-07 14:17
Airport Cleveland Hopkins International Airport (KCLE)

Arrival

Time 2026-05-07 14:33
Airport Cleveland Hopkins International Airport (KCLE)
Time Latitude Longitude Altitude Speed Heading
2026-05-07 14:06 41.40283 -81.85399 786 ft 0 kts 329°
2026-05-07 14:12 41.40315 -81.85422 785 ft 8 kts 339°
2026-05-07 14:12 41.40378 -81.85450 783 ft 11 kts 341°
2026-05-07 14:12 41.40462 -81.85486 780 ft 14 kts 343°
2026-05-07 14:12 41.40558 -81.85508 778 ft 14 kts 26°
2026-05-07 14:13 41.40625 -81.85416 779 ft 14 kts 52°
2026-05-07 14:13 41.40689 -81.85313 778 ft 15 kts 50°
2026-05-07 14:13 41.40754 -81.85209 779 ft 14 kts 51°
2026-05-07 14:13 41.40812 -81.85116 781 ft 12 kts 50°
2026-05-07 14:14 41.40867 -81.85030 782 ft 12 kts 51°
2026-05-07 14:14 41.40920 -81.84950 785 ft 11 kts 48°
2026-05-07 14:14 41.40967 -81.84877 788 ft 11 kts 48°
2026-05-07 14:14 41.41022 -81.84793 789 ft 14 kts 52°
2026-05-07 14:15 41.41097 -81.84671 790 ft 19 kts 52°
2026-05-07 14:15 41.41186 -81.84528 790 ft 22 kts 51°
2026-05-07 14:15 41.41286 -81.84367 790 ft 23 kts 50°
2026-05-07 14:15 41.41387 -81.84208 790 ft 22 kts 50°
2026-05-07 14:16 41.41450 -81.84148 792 ft 0 kts 357°
2026-05-07 14:16 41.41477 -81.84162 792 ft 16 kts 323°
2026-05-07 14:16 41.41427 -81.84375 790 ft 48 kts 230°
2026-05-07 14:16 41.41119 -81.84849 855 ft 79 kts 229°
2026-05-07 14:17 41.40738 -81.85394 1076 ft 82 kts 229°
2026-05-07 14:17 41.40351 -81.85960 1292 ft 85 kts 232°
2026-05-07 14:17 41.39889 -81.86431 1526 ft 88 kts 192°
2026-05-07 14:17 41.39283 -81.86189 1733 ft 96 kts 164°
2026-05-07 14:18 41.38737 -81.85625 1740 ft 113 kts 115°
2026-05-07 14:18 41.38853 -81.84637 1828 ft 108 kts 51°
2026-05-07 14:18 41.39332 -81.83868 1890 ft 107 kts 43°
2026-05-07 14:18 41.39824 -81.83125 1899 ft 109 kts 44°
2026-05-07 14:19 41.40333 -81.82404 1941 ft 103 kts 41°
2026-05-07 14:19 41.40804 -81.81724 1846 ft 99 kts 41°
2026-05-07 14:19 41.41242 -81.81052 1726 ft 95 kts 41°
2026-05-07 14:19 41.41738 -81.80520 1588 ft 87 kts
2026-05-07 14:20 41.42231 -81.80836 1516 ft 80 kts 308°
2026-05-07 14:20 41.42571 -81.81391 1490 ft 74 kts 301°
2026-05-07 14:20 41.42809 -81.81958 1422 ft 66 kts 273°
2026-05-07 14:20 41.42610 -81.82560 1227 ft 77 kts 229°
2026-05-07 14:21 41.42252 -81.83068 1124 ft 75 kts 233°
2026-05-07 14:21 41.41939 -81.83574 1003 ft 68 kts 231°
2026-05-07 14:21 41.41640 -81.84044 879 ft 65 kts 232°
2026-05-07 14:21 41.41364 -81.84476 790 ft 51 kts 232°
2026-05-07 14:22 41.41109 -81.84878 800 ft 74 kts 231°
2026-05-07 14:22 41.40732 -81.85421 988 ft 82 kts 230°
2026-05-07 14:22 41.40345 -81.85981 1209 ft 85 kts 232°
2026-05-07 14:22 41.39937 -81.86531 1501 ft 82 kts 211°
2026-05-07 14:23 41.39357 -81.86373 1701 ft 96 kts 152°
2026-05-07 14:23 41.38790 -81.85885 1793 ft 101 kts 151°
2026-05-07 14:23 41.38550 -81.85006 1846 ft 115 kts 77°
2026-05-07 14:23 41.38928 -81.84163 2007 ft 101 kts 48°
2026-05-07 14:24 41.39404 -81.83429 1950 ft 105 kts 45°
2026-05-07 14:24 41.39880 -81.82704 1918 ft 104 kts 41°
2026-05-07 14:24 41.40360 -81.82007 1873 ft 102 kts 44°
2026-05-07 14:24 41.40815 -81.81301 1768 ft 99 kts 42°
2026-05-07 14:25 41.41285 -81.80665 1685 ft 96 kts 38°
2026-05-07 14:25 41.41836 -81.80332 1613 ft 83 kts 337°
2026-05-07 14:25 41.42244 -81.80761 1544 ft 72 kts 307°
2026-05-07 14:25 41.42571 -81.81249 1457 ft 72 kts 305°
2026-05-07 14:26 41.42807 -81.81797 1376 ft 66 kts 266°
2026-05-07 14:26 41.42628 -81.82420 1205 ft 76 kts 239°
2026-05-07 14:26 41.42314 -81.82980 1098 ft 74 kts 234°
2026-05-07 14:26 41.42005 -81.83479 1000 ft 68 kts 232°
2026-05-07 14:27 41.41702 -81.83941 892 ft 66 kts 232°
2026-05-07 14:27 41.41424 -81.84394 793 ft 59 kts 231°
2026-05-07 14:27 41.41145 -81.84832 806 ft 77 kts 229°
2026-05-07 14:27 41.40747 -81.85420 944 ft 89 kts 232°
2026-05-07 14:28 41.40351 -81.86076 1159 ft 90 kts 233°
2026-05-07 14:28 41.39935 -81.86673 1434 ft 88 kts 221°
2026-05-07 14:28 41.39311 -81.86552 1645 ft 106 kts 150°
2026-05-07 14:28 41.38735 -81.85946 1841 ft 109 kts 148°
2026-05-07 14:29 41.38398 -81.85077 1825 ft 120 kts 85°
2026-05-07 14:29 41.38775 -81.84138 1830 ft 114 kts 48°
2026-05-07 14:29 41.39244 -81.83336 1828 ft 107 kts 45°
2026-05-07 14:29 41.39750 -81.82613 1802 ft 106 kts 39°
2026-05-07 14:30 41.40282 -81.81941 1742 ft 108 kts 37°
2026-05-07 14:30 41.40779 -81.81277 1681 ft 98 kts 38°
2026-05-07 14:30 41.41247 -81.80649 1624 ft 92 kts 38°
2026-05-07 14:30 41.41746 -81.80184 1576 ft 84 kts
2026-05-07 14:31 41.42237 -81.80493 1484 ft 80 kts 304°
2026-05-07 14:31 41.42522 -81.81070 1389 ft 69 kts 295°
2026-05-07 14:31 41.42690 -81.81648 1272 ft 68 kts 275°
2026-05-07 14:31 41.42617 -81.82259 1158 ft 66 kts 252°
2026-05-07 14:32 41.42405 -81.82774 1087 ft 61 kts 237°
2026-05-07 14:32 41.42150 -81.83228 1029 ft 62 kts 233°
2026-05-07 14:32 41.41874 -81.83661 940 ft 60 kts 232°
2026-05-07 14:32 41.41610 -81.84086 850 ft 59 kts 231°
2026-05-07 14:33 41.41372 -81.84459 790 ft 44 kts 230°
2026-05-07 14:33 41.41097 -81.84891 824 ft 77 kts 230°
2026-05-07 14:33 41.40712 -81.85440 1015 ft 84 kts 230°
2026-05-07 14:33 41.40330 -81.86023 1252 ft 85 kts 234°
2026-05-07 14:34 41.39895 -81.86500 1575 ft 86 kts 187°
2026-05-07 14:34 41.39329 -81.86019 1763 ft 105 kts 148°
2026-05-07 14:34 41.38786 -81.85356 1890 ft 105 kts 139°
2026-05-07 14:34 41.38724 -81.84423 1871 ft 117 kts 57°
2026-05-07 14:35 41.39147 -81.83532 1945 ft 107 kts 54°
2026-05-07 14:35 41.39563 -81.82751 1928 ft 103 kts 46°
2026-05-07 14:35 41.40028 -81.82035 1915 ft 98 kts 42°
2026-05-07 14:35 41.40483 -81.81370 1804 ft 96 kts 38°
2026-05-07 14:36 41.40919 -81.80745 1698 ft 93 kts 41°
2026-05-07 14:36 41.41180 -81.80288 1616 ft 93 kts 48°
2026-05-07 14:36 41.41632 -81.79771 1549 ft 77 kts
2026-05-07 14:36 41.42031 -81.80085 1401 ft 69 kts 306°
2026-05-07 14:37 41.42314 -81.80606 1307 ft 67 kts 302°
2026-05-07 14:37 41.42681 -81.81667 1161 ft 67 kts 258°
2026-05-07 14:37 41.42547 -81.82290 1098 ft 71 kts 252°
2026-05-07 14:38 41.42351 -81.82878 1039 ft 69 kts 241°
2026-05-07 14:38 41.42076 -81.83366 974 ft 63 kts 233°
2026-05-07 14:38 41.41797 -81.83789 900 ft 59 kts 230°
2026-05-07 14:38 41.41539 -81.84203 832 ft 56 kts 231°
2026-05-07 14:39 41.41296 -81.84580 789 ft 46 kts 230°
2026-05-07 14:39 41.41116 -81.84871 788 ft 38 kts 228°
2026-05-07 14:39 41.40953 -81.85119 782 ft 34 kts 231°
2026-05-07 14:39 41.40792 -81.85329 778 ft 31 kts 208°
2026-05-07 14:40 41.40663 -81.85367 778 ft 14 kts 203°
2026-05-07 14:40 41.40602 -81.85453 779 ft 13 kts 231°
2026-05-07 14:40 41.40538 -81.85515 778 ft 11 kts 175°
2026-05-07 14:40 41.40464 -81.85486 779 ft 11 kts 162°
2026-05-07 14:41 41.40401 -81.85462 782 ft 8 kts 164°
2026-05-07 14:41 41.40357 -81.85445 784 ft 5 kts 162°
2026-05-07 14:41 41.40324 -81.85430 785 ft 5 kts 159°
2026-05-07 14:41 41.40291 -81.85409 786 ft 6 kts 155°
2026-05-07 14:42 41.40252 -81.85406 786 ft 6 kts 195°
2026-05-07 14:42 41.40243 -81.85432 786 ft 0 kts 274°